Location: Unspecified
(0.0000°N, 0.0000°E)
Time: 07:04:12
(UTC+02:00)

SWIFT - Visible Passes

Search period start: 24 August 2016 00:00
Search period end: 03 September 2016 00:00
Orbit: 549 x 565 km, 20.6° (Epoch: 22 August)

Date Brightness Start Highest point End Pass type
(mag) Time Alt. Az. Time Alt. Az. Time Alt. Az.
24 Aug 4.6 05:54:58 21° ESE 05:54:58 21° ESE 05:56:47 10° E visible
24 Aug 2.5 07:30:45 10° WSW 07:34:58 63° NNW 07:39:10 10° ENE visible
24 Aug 4.6 21:11:58 10° WSW 21:14:38 16° SSW 21:16:34 12° SSE visible
25 Aug 4.7 05:50:34 22° E 05:50:34 22° E 05:52:14 10° E visible
25 Aug 3.0 07:26:17 11° W 07:30:10 43° NNW 07:34:12 10° NE visible
25 Aug 4.8 21:08:09 10° SW 21:09:56 12° SSW 21:11:42 10° S visible
26 Aug 4.8 05:46:11 20° E 05:46:11 20° E 05:47:35 10° ENE visible
26 Aug 3.5 07:21:53 12° W 07:25:22 31° NNW 07:29:09 10° NE visible
27 Aug 5.1 05:41:46 17° ENE 05:41:46 17° ENE 05:42:48 10° ENE visible
27 Aug 3.9 07:17:29 11° WNW 07:20:35 23° NNW 07:23:59 10° NNE visible
28 Aug 5.3 05:37:21 14° ENE 05:37:21 14° ENE 05:37:56 10° ENE visible
28 Aug 4.3 07:13:03 10° WNW 07:15:50 17° NNW 07:18:42 10° NNE visible
29 Aug 5.5 05:32:54 10° NE 05:32:54 10° NE 05:32:57 10° NE visible
29 Aug 4.6 07:08:59 10° NW 07:11:06 13° NNW 07:13:13 10° NNE visible
30 Aug 4.8 07:05:45 10° NNW 07:06:24 10° NNW 07:07:03 10° N visible
